Regional Weather Roundup
Issued by NWS

Home | Current Version | Previous Version | Text Only | Print | Product List | Glossary On
Versions: 1 2 3 4 5 6 7 8 9 10 11 12 13 14 15 16 17 18 19 20 21 22 23 24 25 26 27 28 29 30 31 32 33 34 35 36 37 38 39 40 41 42 43 44 45 46 47 48 49 50
000
ASUS44 KMEG 240210
RWRTN
TENNESSEE HOURLY STATE WEATHER ROUNDUP
NATIONAL WEATHER SERVICE MEMPHIS TN
900 PM CDT TUE MAY 23 2017

TNZ002-004-019-021-049-052-054-088>092-240300-
WEST TENNESSEE

CITY           SKY/WX    TMP DP  RH WIND       PRES   REMARKS
MEMPHIS INTL   CLOUDY    67  51  56 NW16G30   29.68S
NWS MEMPHIS      N/A     69 N/A N/A MISG        N/A
JACKSON        CLOUDY    65  57  75 CALM      29.66S
DYERSBURG        N/A    N/A N/A N/A MISG        N/A
COVINGTON      CLEAR     68  57  68 NW9       29.67S
UNION CITY     CLOUDY    68  55  64 CALM      29.64F
BOLIVAR        MOCLDY    66  59  77 CALM      29.66S
PARIS          CLOUDY    68  57  68 CALM      29.65S
HUNTINGDON     CLOUDY    68  57  68 CALM      29.65F
LEXINGTON      CLOUDY    66  57  72 MISG      29.66S
SELMER         MOCLDY    64  61  88 CALM      29.67R
SAVANNAH       CLOUDY    66  61  82 CALM      29.66R
$$

TNZ008-025-027-028-033-062-065-066-240300-
NORTH MIDDLE TENNESSEE

CITY           SKY/WX    TMP DP  RH WIND       PRES   REMARKS
NASHVILLE      CLOUDY    71  57  61 CALM      29.66S
PORTLAND       MOCLDY    68  54  60 W3        29.66R
CLARKSVILLE    MOCLDY    68  52  56 NW3       29.65S
SMYRNA         CLOUDY    68  58  70 NW7       29.66S
COOKEVILLE     PTCLDY    63  63 100 CALM      29.65R
GALLATIN       MOCLDY    68  59  73 CALM      29.68R
CROSSVILLE     CLOUDY    63  61  93 E3        29.69S
$$

TNZ061-075-076-078-094-096-097-240300-
SOUTH MIDDLE TENNESSEE

CITY           SKY/WX    TMP DP  RH WIND       PRES   REMARKS
FAYETTEVILLE   CLOUDY    70  63  78 CALM      29.66R
TULLAHOMA      CLOUDY    66  63  88 CALM      29.68R
WINCHESTER     MOCLDY    64  61  88 SE5         N/A
MCMINNVILLE    PTCLDY    64  63  94 CALM      29.67R
COLUMBIA       CLEAR     66  59  77 CALM      29.64F
SHELBYVILLE    CLOUDY    70  59  68 NW6       29.66R
$$

TNZ017-018-042-046-047-240300-
NORTHEAST TENNESSEE

CITY           SKY/WX    TMP DP  RH WIND       PRES   REMARKS
TRI CITIES     CLOUDY    64  63  96 CALM      29.68S
ELIZABETHTON   CLOUDY    64  63  94 CALM      29.69R
$$

TNZ012-013-036-069-073-074-240300-
CENTRAL EAST TENNESSEE

CITY           SKY/WX    TMP DP  RH WIND       PRES   REMARKS
KNOXVILLE      TSTM      68  65  90 NE5       29.63F
OAK RIDGE      LGT RAIN  66  62  87 CALM      29.67F
DOWNTOWN KNOXV CLOUDY    66  66 100 CALM      29.65F FOG
GATLINBURG     MOCLDY    64  64 100 CALM      29.65F
MORRISTOWN     CLOUDY    64  64 100 CALM      29.65F
JACKSBORO      CLOUDY    63  63 100 CALM      29.70S
$$

TNZ083-085-099-240300-
SOUTHEAST TENNESSEE

CITY           SKY/WX    TMP DP  RH WIND       PRES   REMARKS
CHATTANOOGA    CLOUDY    67  64  90 NW3       29.65F
$$

SKY/WX REPORTED AS FAIR MEANS FEW OR NO CLOUDS BELOW
12 THOUSAND FEET.




USA.gov is the U.S. government's official web portal to all federal, state and local government web resources and services.